{"data":{"norad_id":66593,"epoch":"2026-09-20T15:25:22.145952Z","epoch_age_seconds":74135,"freshness":"FRESH","line1":"1 66593U 25270F   26263.64261743  .00014476  00000+0  53432-3 0  9998","line2":"2 66593  42.9991  34.9915 0001082 248.2260 111.8476 15.27593959 47522","mean_motion":15.27593959,"eccentricity":0.0001082,"inclination_deg":42.9991,"raan_deg":34.9915,"arg_perigee_deg":248.226,"mean_anomaly_deg":111.8476,"bstar":0.00053432,"rev_number":4752,"period_min":94.26588731358,"perigee_km":482.26492227717,"apogee_km":483.74967390327,"semimajor_km":6861.1442980902,"source":"CELESTRAK","updated_at":"2026-09-21T09:00:35.976651Z"}}